Regional Weather Roundup
Issued by NWS

Home | Current Version | Previous Version | Graphics & Text | Print | Product List | Glossary On
Versions: 1 2 3 4 5 6 7 8 9 10 11 12 13 14 15 16 17 18 19 20 21 22 23 24 25 26 27 28 29 30 31 32 33 34 35 36 37 38 39 40 41 42 43 44 45 46 47 48 49 50
000
ASUS44 KMEG 160500
RWRTN
TENNESSEE HOURLY STATE WEATHER ROUNDUP
NATIONAL WEATHER SERVICE MEMPHIS TN
1200 AM CDT TUE SEP 16 2014

TNZ002-004-019-021-049-052-054-088>092-160600-
WEST TENNESSEE

CITY           SKY/WX    TMP DP  RH WIND       PRES   REMARKS
MEMPHIS INTL   MOCLDY    73  65  75 SW3       30.12F
NWS MEMPHIS      N/A     69 N/A N/A MISG        N/A
JACKSON        CLEAR     67  64  90 CALM      30.11F
DYERSBURG      PTCLDY    64  54  68 CALM      30.12F
UNION CITY     MOCLDY    64  63  94 CALM      30.11S
PARIS          CLEAR     61  59  94 CALM      30.12F
LEXINGTON      CLEAR     64  64 100 CALM      30.11F
SAVANNAH       CLEAR     66  66 100 CALM      30.12F
$$

TNZ008-025-027-028-033-062-065-066-160600-
NORTH MIDDLE TENNESSEE

CITY           SKY/WX    TMP DP  RH WIND       PRES   REMARKS
NASHVILLE      MOCLDY    65  63  93 CALM      30.13R
CLARKSVILLE    CLOUDY    66  62  87 CALM      30.10F
COOKEVILLE     MOCLDY    64  64 100 CALM      30.13S
CROSSVILLE     CLOUDY    67  63  87 CALM      30.17F
$$

TNZ061-075-076-078-094-096-097-160600-
SOUTH MIDDLE TENNESSEE

CITY           SKY/WX    TMP DP  RH WIND       PRES   REMARKS
FAYETTEVILLE   CLEAR     68  66  94 MISG      30.14S
TULLAHOMA      PTCLDY    66  64  94 CALM      30.15F
WINCHESTER     PTCLDY    68  66  94 CALM      30.15S
COLUMBIA       CLEAR     66  66 100 CALM      30.12R
SHELBYVILLE    CLEAR     66  66 100 CALM      30.14S
$$

TNZ017-018-042-046-047-160600-
NORTHEAST TENNESSEE

CITY           SKY/WX    TMP DP  RH WIND       PRES   REMARKS
TRI CITIES     MOCLDY    64  61  90 CALM      30.15S
ELIZABETHTON   MOCLDY    61  61 100 CALM      30.16F
$$

TNZ012-013-036-069-073-074-160600-
CENTRAL EAST TENNESSEE

CITY           SKY/WX    TMP DP  RH WIND       PRES   REMARKS
KNOXVILLE      PTCLDY    69  68  96 S5        30.12F
OAK RIDGE      FOG       68  67  96 CALM      30.15F VSB 3/4
GATLINBURG     CLEAR     68  66  94 CALM      30.13F
$$

TNZ083-085-099-160600-
SOUTHEAST TENNESSEE

CITY           SKY/WX    TMP DP  RH WIND       PRES   REMARKS
CHATTANOOGA    CLOUDY    72  69  90 CALM      30.14F
$$

SKY/WX REPORTED AS FAIR MEANS FEW OR NO CLOUDS BELOW
12 THOUSAND FEET.



USA.gov is the U.S. government's official web portal to all federal, state and local government web resources and services.